Home   Weather   Netherlands   Wageningen   Past weeks
Flag for Netherlands

Past Weather in Wageningen, Netherlands — Yesterday and Last 2 Weeks

Currently: 57 °F. Partly sunny. (Weather station: Deelen, Netherlands). See more current weather

Past Weather in Wageningen — Graph

°F

Wageningen Temperature Yesterday

Maximum temperature yesterday: 68 °F (at 3:25 pm)
Minimum temperature yesterday: 55 °F (at 12:25 am)
Average temperature yesterday: 60 °F

High & Low Weather Summary for the Past Weeks

 TemperatureHumidityPressure
High77 °F (Apr 6, 3:55 pm)100% (Mar 29, 9:25 am)30.48 "Hg (Mar 29, 9:25 am)
Low37 °F (Mar 30, 11:55 pm)32% (Apr 6, 5:55 pm)29.30 "Hg (Mar 29, 7:25 am)
Average54 °F79%29.80 "Hg
* Reported Mar 29 7:25 am — Apr 13 8:25 am, Wageningen. Weather by CustomWeather, © 2024

Note: Actual official high and low records may vary slightly from our data, if they occured in-between our weather recording intervals... More about our weather records

Wageningen Weather History for the Previous 24 Hours

Scroll right to see more
 ConditionsComfort  
Time TempWeatherWind HumidityBarometerVisibility
8:25 am
Sat, Apr 13
55 °FMore clouds than sun.7 mph82%30.27 "HgN/A
7:55 am55 °FMostly cloudy.7 mph82%30.27 "HgN/A
7:25 am54 °FOvercast.8 mph88%30.27 "HgN/A
6:55 am54 °FOvercast.8 mph88%30.27 "HgN/A
6:25 am54 °FMostly cloudy.8 mph88%30.27 "HgN/A
5:55 am54 °FOvercast.9 mph88%30.27 "HgN/A
5:25 am54 °FOvercast.8 mph88%30.30 "HgN/A
4:55 am54 °FOvercast.8 mph88%30.30 "HgN/A
4:25 am54 °FOvercast.8 mph88%30.30 "HgN/A
3:55 am54 °FOvercast.7 mph88%30.30 "HgN/A
3:25 am55 °FOvercast.9 mph88%30.30 "HgN/A
2:55 am55 °FOvercast.9 mph88%30.30 "HgN/A
1:55 am57 °FOvercast.9 mph82%30.30 "HgN/A
1:25 am57 °FHigh level clouds.12 mph82%30.30 "HgN/A
12:55 am57 °FHigh level clouds.9 mph82%30.30 "HgN/A
12:25 am57 °FHigh level clouds.8 mph82%30.33 "HgN/A
11:55 pm
Fri, Apr 12
57 °FOvercast.8 mph82%30.33 "HgN/A
11:25 pm57 °FOvercast.8 mph82%30.33 "HgN/A
10:55 pm57 °FOvercast.5 mph82%30.33 "HgN/A
10:25 pm57 °FOvercast.5 mph82%30.33 "HgN/A
9:55 pm57 °FOvercast.5 mph82%30.33 "HgN/A
9:25 pm59 °FOvercast.6 mph77%30.33 "HgN/A
8:55 pm59 °FOvercast.6 mph77%30.33 "HgN/A
8:25 pm61 °FOvercast.6 mph72%30.33 "HgN/A
7:55 pm63 °FOvercast.8 mph68%30.33 "HgN/A
7:25 pm64 °FOvercast.12 mph64%30.33 "HgN/A
6:55 pm64 °FOvercast.10 mph64%30.33 "HgN/A
6:25 pm66 °FOvercast.13 mph60%30.36 "HgN/A
5:55 pm66 °FMostly cloudy.15 mph60%30.36 "HgN/A
5:25 pm68 °FMore clouds than sun.14 mph60%30.36 "HgN/A
4:55 pm66 °FCloudy.17 mph64%30.36 "HgN/A
3:55 pm66 °FMostly cloudy.17 mph64%30.36 "HgN/A
3:25 pm68 °FPartly sunny.18 mph64%30.36 "HgN/A
2:55 pm66 °FMostly cloudy.20 mph64%30.39 "HgN/A
2:25 pm64 °FPartly sunny.17 mph68%30.39 "HgN/A
1:55 pm66 °FMore clouds than sun.20 mph64%30.39 "HgN/A
12:55 pm64 °FMore clouds than sun.20 mph68%30.42 "HgN/A
12:25 pm63 °FPartly sunny.15 mph73%30.42 "HgN/A
11:55 am63 °FPartly sunny.15 mph77%30.42 "HgN/A
11:25 am61 °FPartly sunny.14 mph83%30.42 "HgN/A
10:55 am59 °FMore clouds than sun.14 mph82%30.42 "HgN/A
9:55 am59 °FMostly cloudy.13 mph82%30.42 "HgN/A
Weather by CustomWeather, © 2024

See weather overview